Find OneWeb SL0573

NORAD ID: 55152 Int'l Des: 2023-004 Owner: ONEWEBN Country: UK Constellation: oneweb operational
LEOCIRCULARPOLARONEWEB_TYPE

リアルタイム位置

3D地球を読み込み中...

OneWeb SL0573について

説明を読み込み中...

次回通過

Passes for default location (London). Set your location on the main map for personalized predictions.

高度履歴

Loading altitude history...

軌道要素

1 55152U 23004N 26127.14166095 -.00000054 00000-0 -16917-3 0 9995
2 55152 87.9180 343.6385 0001211 67.2801 292.8459 13.18688239164283
Epoch: May 7, 2026 • Age: 10 hours

現在のステータス

高度 1219.3 km
速度 7.24 km/s
衛星直下点 -84.46°S, 112.38°E
打ち上げ日 Jan 10, 2023
運用期間 3.3 years
タイプ internet

技術仕様

分類 Payload
質量 148.00 kg
乾燥質量 140.00 kg
総質量 148.00 kg
長さ 1.30 m
直径 1.00 m
スパン 5.00 m
形状 Trapezoid+2 pan
製造者 ONEWUS
バスタイプ ARROW
フェーズステータス In Orbit
所有者/国 ONEWEBN/UK

Most Searched